{"data":{"norad_id":54095,"epoch":"2026-05-24T23:09:17.750592Z","epoch_age_seconds":84924,"freshness":"FRESH","line1":"1 54095U 22136AW  26144.96478878 -.00000330  00000+0 -26535-5 0  9994","line2":"2 54095  53.2132 351.3806 0001102  77.5069 282.6047 15.08840178198509","mean_motion":15.08840178,"eccentricity":0.0001102,"inclination_deg":53.2132,"raan_deg":351.3806,"arg_perigee_deg":77.5069,"mean_anomaly_deg":282.6047,"bstar":-2.6535e-6,"rev_number":19850,"period_min":95.437543418863,"perigee_km":538.98049453046,"apogee_km":540.50519524827,"semimajor_km":6917.8798448894,"source":"CELESTRAK","updated_at":"2026-05-25T13:38:17.656308Z"}}